Location: Passau
(48.5830°N, 13.4830°E)
Time: 23:02:48
(UTC+02:00)

Tiangong - Visible Passes

Search period start: 15 April 2024 00:00
Search period end: 25 April 2024 00:00
Orbit: 371 x 381 km, 41.5° (Epoch: 15 April)

Date Brightness Start Highest point End Pass type
(mag) Time Alt. Az. Time Alt. Az. Time Alt. Az.
17 Apr 0.4 21:24:28 10° S 21:24:28 10° S 21:24:28 10° S visible
18 Apr 0.3 21:57:10 10° SW 21:57:35 12° SSW 21:57:35 12° SSW visible
19 Apr -0.2 20:55:17 10° SSW 20:57:10 15° SSE 20:58:26 13° SE visible
20 Apr -0.7 21:28:30 10° SW 21:30:54 21° S 21:31:10 21° SSE visible
21 Apr -0.2 22:02:16 10° WSW 22:03:47 18° SSW 22:03:47 18° SSW visible
22 Apr -0.6 20:59:54 10° SW 21:02:21 22° S 21:04:15 13° SE visible
23 Apr -0.4 21:33:51 10° WSW 21:36:08 19° S 21:36:43 18° S visible
24 Apr 0.4 22:08:30 10° SW 22:09:08 12° SW 22:09:08 12° SW visible
